[[{"header":{"parameterUnit":"m.s-1","parameterCategory":1,"la1":30.2991,"la2":30.254,"lo1":-89.0895,"lo2":-89.0444,"dy":0.0017,"dx":0.0017,"nx":28,"ny":28,"refTime":"2025-09-05T09:00:00:Z","depth":0,"parameterNumber":2,"parameterNumberName":"U-component_of_WINDS"},"data":[0,0,0,0,0,0,0,0,0,0,0,0,0,0,0,0,0,0,0,0,0,0,0,0,0,0,0,0,0,0,0,0,0,0,0,0,0,0,0,0,0,0,0,0,0,0,0,0,0,0,0,0,0,0,0,0,0,0,-1.4947,-1.4947,0,-1.4979,-1.4979,-1.498,-1.495,-1.4949,-1.4948,-1.4947,-1.4981,-1.4983,-1.4985,0,0,0,0,0,0,0,0,0,0,0,0,0,-1.4861,-1.4863,-1.4947,-1.4947,-1.4947,-1.4979,-1.4979,-1.498,-1.4951,-1.4949,-1.4948,-1.4946,-1.498,-1.4982,-1.4985,0,0,0,0,0,0,0,0,0,0,0,0,0,-1.4896,-1.4863,-1.4947,-1.4937,-1.4936,-1.4979,-1.4979,-1.498,-1.4951,-1.4949,-1.4947,-1.4946,-1.4979,-1.4982,-1.4985,-1.5039,0,0,-1.4994,-1.4996,0,0,0,0,0,0,0,0,-1.4894,-1.4899,-1.4938,-1.4937,-1.4937,-1.4959,-1.4961,-1.5,-1.4951,-1.4945,-1.4947,-1.4945,-1.4975,-1.4978,-1.4988,-1.5041,-1.5042,-1.4995,-1.4997,-1.4998,-1.4999,0,0,0,0,0,0,0,-1.4892,-1.4898,-1.4959,-1.4938,-1.4938,-1.4931,-1.4934,-1.4969,-1.497,-1.4946,-1.4944,-1.4948,-1.4974,-1.4985,-1.4989,-1.5043,-1.4995,-1.4997,-1.4999,-1.5,-1.5143,-1.5145,0,0,0,0,0,0,-1.489,-1.4896,-1.4958,-1.496,-1.4911,-1.4934,-1.4937,-1.4954,-1.4969,-1.497,-1.4949,-1.4946,-1.4981,-1.4985,-1.499,-1.5055,-1.4998,-1.5001,-1.5002,-1.5141,-1.5143,-1.5145,0,0,0,0,0,0,-1.4889,-1.4896,-1.4957,-1.4928,-1.4935,-1.4937,-1.4956,-1.4955,-1.4966,-1.4972,-1.4972,-1.496,-1.498,-1.4986,-1.5027,-1.5056,-1.5002,-1.5005,-1.5138,-1.5142,-1.5144,-1.5185,0,0,0,0,0,0,-1.4886,-1.4896,-1.4916,-1.4928,-1.4937,-1.4994,-1.4957,-1.4957,-1.4971,-1.4968,-1.4982,-1.4983,-1.4979,-1.5023,-1.503,-1.5059,-1.5007,-1.5136,-1.514,-1.5143,-1.5181,-1.5189,-1.5196,0,0,0,0,0,-1.4883,-1.4926,-1.4917,-1.4925,-1.4962,-1.4995,-1.5,-1.4994,-1.4974,-1.4994,-1.4998,-1.4983,-1.5051,-1.5028,-1.5036,-1.5065,-1.5134,-1.5139,-1.5143,-1.5178,-1.5187,-1.5195,0,0,0,0,0,0,-1.4917,-1.4928,-1.4918,-1.4966,-1.498,-1.499,-1.5016,-1.5005,-1.5025,-1.5021,-1.5013,-1.5017,-1.5061,-1.5067,-1.5041,-1.5119,-1.5089,-1.5096,-1.5113,-1.5122,-1.5129,-1.5127,-1.501,0,0,0,0,0,-1.493,-1.4956,-1.4964,-1.5006,-1.5013,-1.5014,-1.5028,-1.5022,-1.5037,-1.5043,-1.505,-1.5065,-1.509,-1.5106,-1.513,-1.5182,-1.5185,-1.5206,-1.5214,-1.522,-1.5225,-1.5254,-1.5264,-1.516,-1.516,-1.516,0,0,-1.4958,-1.4966,-1.4983,-1.5013,-1.5023,-1.5051,-1.5019,-1.5049,-1.507,-1.5048,-1.5087,-1.5093,-1.5109,-1.5157,-1.5178,-1.5164,-1.5254,-1.5225,-1.523,-1.5232,-1.5259,-1.5269,-1.5278,-1.5163,-1.5162,-1.5162,0,0,-1.5021,-1.5031,-1.5066,-1.5078,-1.5094,-1.5094,-1.5102,-1.5115,-1.5118,-1.5158,-1.5142,-1.5166,-1.5209,-1.5222,-1.5234,-1.5303,-1.529,-1.5311,-1.5349,-1.5377,-1.5385,-1.5393,-1.5418,-1.5427,-1.5317,-1.5317,-1.5317,0,-1.5053,-1.5094,-1.5086,-1.5118,-1.5132,-1.5113,-1.515,-1.5161,-1.5184,-1.5194,-1.5177,-1.5231,-1.5241,-1.5291,-1.5308,-1.5319,-1.5329,-1.5309,-1.5385,-1.5392,-1.5398,-1.5422,-1.5432,-1.5319,-1.5319,-1.5319,-1.5318,0,-1.5133,-1.5161,-1.5188,-1.5211,-1.5228,-1.5262,-1.526,-1.5278,-1.5271,-1.5273,-1.5315,-1.5326,-1.5351,-1.5363,-1.5356,-1.5412,-1.5403,-1.5386,-1.5356,-1.5411,-1.5433,-1.5443,-1.5323,-1.5322,-1.5321,-1.532,0,0,-1.5218,-1.5237,-1.5247,-1.5257,-1.5274,-1.5296,-1.5329,-1.5354,-1.537,-1.5387,-1.5415,-1.5452,-1.5437,-1.545,-1.5445,-1.547,-1.5525,-1.545,-1.545,-1.5464,-1.5588,-1.5601,-1.5612,-1.5516,-1.5518,-1.5519,-1.5587,0,-1.5283,-1.5341,-1.5336,-1.5391,-1.5417,-1.54,-1.5429,-1.5443,-1.5446,-1.5469,-1.5473,-1.55,-1.5477,-1.5485,-1.5509,-1.5513,-1.555,-1.5508,-1.5543,-1.5544,-1.554,-1.5624,-1.5638,-1.5701,-1.5596,-1.5597,-1.5598,0,-1.5366,-1.5386,-1.5443,-1.5456,-1.5467,-1.5494,-1.5516,-1.5539,-1.5554,-1.5555,-1.5571,-1.5561,-1.5596,-1.5565,-1.5613,-1.5585,-1.5599,-1.5603,-1.5606,-1.5609,-1.5575,-1.563,-1.5721,-1.5731,-1.5612,-1.5611,-1.561,0,-1.5423,-1.5464,-1.5504,-1.5513,-1.553,-1.5549,-1.5556,-1.557,-1.5586,-1.5605,-1.5616,-1.5639,-1.5653,-1.5672,-1.5669,-1.5647,-1.5718,-1.5687,-1.572,-1.572,-1.5736,-1.5735,-1.5831,-1.5745,-1.5744,-1.5744,-1.5744,0,-1.5496,-1.5533,-1.553,-1.5555,-1.5595,-1.5589,-1.5629,-1.5635,-1.5647,-1.5673,-1.566,-1.5684,-1.568,-1.5704,-1.5703,-1.5743,-1.5749,-1.5751,-1.575,-1.5752,-1.5752,-1.5761,-1.5757,-1.5747,-1.5746,-1.5746,-1.5745,0,-1.5567,-1.5567,-1.561,-1.5621,-1.5625,-1.5655,-1.5665,-1.5689,-1.569,-1.5723,-1.5731,-1.5734,-1.5763,-1.5763,-1.5795,-1.5794,-1.5844,-1.5838,-1.5838,-1.5837,-1.587,-1.5867,-1.5976,-1.599,-1.5894,-1.5895,-1.5896,0,-1.5614,-1.5641,-1.5656,-1.5672,-1.5681,-1.5708,-1.5723,-1.5718,-1.5736,-1.5756,-1.5777,-1.5804,-1.5826,-1.5873,-1.5878,-1.5903,-1.5898,-1.5935,-1.5902,-1.5903,-1.5899,-1.5898,-1.5901,-1.5941,-1.5942,-1.5943,-1.5944,0,-1.5697,-1.5696,-1.5719,-1.5742,-1.5761,-1.5779,-1.5796,-1.581,-1.5807,-1.5827,-1.5856,-1.5873,-1.5906,-1.5934,-1.5958,-1.5967,-1.5955,-1.5954,-1.5963,-1.5966,-1.5965,-1.5966,-1.5856,-1.5952,-1.5951,-1.595,-1.595,-1.5949,-1.5758,-1.5781,-1.5796,-1.5822,-1.5834,-1.585,-1.5873,-1.5878,-1.5902,-1.5928,-1.5924,-1.5957,-1.5972,-1.6004,-1.6014,-1.604,-1.6027,-1.604,-1.6044,-1.6047,-1.6051,-1.5961,-1.6044,-1.6044,-1.6044,-1.6044,-1.6044,0,-1.5841,-1.5849,-1.5873,-1.5897,-1.5918,-1.5905,-1.5922,-1.5941,-1.597,-1.5985,-1.6006,-1.604,-1.6067,-1.6075,-1.6101,-1.612,-1.6116,-1.6127,-1.6126,-1.6128,-1.606,-1.605,-1.613,-1.613,-1.613,-1.613,-1.613,-1.613,-1.5886,-1.5926,-1.5926,-1.5972,-1.598,-1.6012,-1.6023,-1.6038,-1.605,-1.6088,-1.6111,-1.6115,-1.6128,-1.6155,-1.6179,-1.6181,-1.6191,-1.6205,-1.6205,-1.6142,-1.6133,-1.6125,-1.6115,-1.6207,-1.6208,-1.6271,-1.6271,-1.6272]},{"header":{"parameterUnit":"m.s-1","parameterCategory":1,"la1":30.2991,"la2":30.254,"lo1":-89.0895,"lo2":-89.0444,"dy":0.0017,"dx":0.0017,"nx":28,"ny":28,"refTime":"2025-09-05T09:00:00:Z","depth":0,"parameterNumber":3,"parameterNumberName":"V-component_of_WINDS"},"data":[0,0,0,0,0,0,0,0,0,0,0,0,0,0,0,0,0,0,0,0,0,0,0,0,0,0,0,0,0,0,0,0,0,0,0,0,0,0,0,0,0,0,0,0,0,0,0,0,0,0,0,0,0,0,0,0,0,0,3.0412,3.0412,0,3.0405,3.0405,3.0405,3.0374,3.0373,3.0373,3.0372,3.0365,3.0366,3.0366,0,0,0,0,0,0,0,0,0,0,0,0,0,3.0398,3.0398,3.0412,3.0412,3.0411,3.0405,3.0405,3.0405,3.0374,3.0373,3.0372,3.0372,3.0365,3.0366,3.0367,0,0,0,0,0,0,0,0,0,0,0,0,0,3.0399,3.0399,3.0412,3.0395,3.0394,3.0405,3.0405,3.0405,3.0374,3.0373,3.0372,3.0371,3.0365,3.0366,3.0367,3.0393,0,0,3.0369,3.0369,0,0,0,0,0,0,0,0,3.0399,3.0399,3.0398,3.0396,3.0395,3.0389,3.0398,3.0401,3.0375,3.0382,3.0372,3.0371,3.0374,3.0374,3.0375,3.0393,3.0392,3.0369,3.0369,3.037,3.037,0,0,0,0,0,0,0,3.0399,3.04,3.0409,3.0398,3.0396,3.0388,3.0387,3.0398,3.0384,3.0381,3.0379,3.0378,3.0373,3.0375,3.0375,3.0392,3.0369,3.037,3.037,3.037,3.043,3.0431,0,0,0,0,0,0,3.0401,3.04,3.0409,3.0409,3.0394,3.039,3.0388,3.0392,3.0384,3.0382,3.0379,3.0377,3.0374,3.0374,3.0375,3.0404,3.037,3.037,3.0371,3.0429,3.043,3.0431,0,0,0,0,0,0,3.0401,3.0402,3.0409,3.0404,3.0404,3.0391,3.0395,3.0393,3.0394,3.0383,3.038,3.0383,3.0373,3.0374,3.0388,3.0403,3.0371,3.0371,3.0427,3.0429,3.0431,3.0463,0,0,0,0,0,0,3.0401,3.0402,3.0412,3.0404,3.0404,3.0423,3.0396,3.0393,3.0395,3.0392,3.0386,3.0384,3.0372,3.0387,3.0389,3.0403,3.0372,3.0426,3.0428,3.043,3.046,3.0465,3.047,0,0,0,0,0,3.04,3.0422,3.0413,3.0414,3.0416,3.0424,3.0424,3.0411,3.0397,3.0406,3.0399,3.0384,3.0402,3.0389,3.0391,3.0406,3.0425,3.0428,3.043,3.0458,3.0464,3.047,0,0,0,0,0,0,3.0432,3.042,3.041,3.043,3.0428,3.0419,3.043,3.0418,3.042,3.0417,3.04,3.0399,3.0416,3.0413,3.0399,3.043,3.0411,3.0414,3.0432,3.0437,3.0442,3.0442,3.0373,0,0,0,0,0,3.0441,3.0448,3.0438,3.0456,3.0456,3.0444,3.0447,3.0436,3.0434,3.0433,3.0427,3.0425,3.043,3.0434,3.0438,3.0461,3.0458,3.0472,3.0476,3.048,3.0482,3.0493,3.0498,3.044,3.044,3.044,0,0,3.046,3.0455,3.046,3.0462,3.046,3.0467,3.0443,3.0452,3.0458,3.0434,3.0447,3.0443,3.044,3.0459,3.0466,3.0456,3.0498,3.0483,3.0487,3.0487,3.0496,3.0501,3.0506,3.0441,3.0441,3.0441,0,0,3.0498,3.0496,3.051,3.0508,3.0504,3.0496,3.05,3.0492,3.0488,3.0501,3.0484,3.049,3.05,3.0498,3.0499,3.0537,3.0522,3.0539,3.0562,3.0573,3.0577,3.0581,3.0593,3.0598,3.0541,3.0541,3.0542,0,3.0522,3.0533,3.0519,3.0529,3.053,3.051,3.0523,3.0522,3.0521,3.0522,3.0511,3.0522,3.0519,3.0535,3.0545,3.0546,3.0549,3.0538,3.0578,3.0582,3.0585,3.0596,3.0601,3.0543,3.0543,3.0543,3.0543,0,3.0562,3.057,3.0582,3.058,3.0582,3.0595,3.0582,3.0587,3.0577,3.057,3.0583,3.0578,3.0581,3.0585,3.0575,3.06,3.0594,3.0581,3.056,3.0593,3.0603,3.0607,3.0546,3.0545,3.0545,3.0544,0,0,3.0618,3.0609,3.0613,3.0612,3.0607,3.0612,3.0624,3.0626,3.0629,3.063,3.0638,3.0647,3.0634,3.0635,3.0625,3.0634,3.0663,3.062,3.0619,3.0626,3.0689,3.0697,3.0702,3.0654,3.0655,3.0656,3.0688,0,3.0653,3.0671,3.0659,3.0679,3.0685,3.0666,3.0676,3.0674,3.0668,3.0673,3.0666,3.0672,3.0656,3.0656,3.0665,3.0658,3.0675,3.0655,3.0661,3.0661,3.066,3.0708,3.0717,3.0748,3.0693,3.0693,3.0694,0,3.0696,3.0697,3.0717,3.071,3.0712,3.0721,3.0722,3.0727,3.0724,3.0719,3.072,3.0708,3.0718,3.07,3.0714,3.0701,3.0703,3.07,3.0701,3.0699,3.0678,3.0706,3.0758,3.0762,3.07,3.07,3.0699,0,3.0732,3.0739,3.0752,3.0752,3.0744,3.0751,3.0748,3.0745,3.0747,3.0748,3.0749,3.0751,3.0752,3.0755,3.0743,3.0731,3.0758,3.0739,3.0753,3.0754,3.0758,3.0757,3.0809,3.0763,3.0763,3.0763,3.0763,0,3.0771,3.0784,3.0768,3.0776,3.079,3.0776,3.079,3.0785,3.0782,3.0789,3.0774,3.078,3.0766,3.0771,3.0762,3.0774,3.0775,3.0771,3.0768,3.0771,3.0771,3.0771,3.0767,3.0764,3.0764,3.0763,3.0763,0,3.0814,3.0804,3.0816,3.0808,3.0807,3.0817,3.081,3.0817,3.081,3.0818,3.082,3.0809,3.0814,3.0804,3.0808,3.0802,3.0818,3.0813,3.0819,3.0816,3.0831,3.0829,3.0882,3.0887,3.084,3.084,3.0841,0,3.0838,3.0847,3.084,3.0843,3.0841,3.0847,3.0848,3.0836,3.0838,3.0836,3.0843,3.0847,3.0849,3.0858,3.085,3.0853,3.0847,3.0865,3.0847,3.0849,3.0845,3.0844,3.0844,3.0868,3.0869,3.0869,3.087,0,3.0882,3.0876,3.0879,3.0881,3.0883,3.0884,3.0884,3.0887,3.0874,3.0877,3.0882,3.0884,3.0887,3.0891,3.0892,3.0889,3.0877,3.0876,3.0879,3.0881,3.0883,3.088,3.0827,3.0874,3.0874,3.0873,3.0873,3.0873,3.0914,3.0921,3.0917,3.0921,3.092,3.092,3.0925,3.0919,3.0923,3.0924,3.0917,3.0923,3.0921,3.0921,3.092,3.0924,3.0916,3.0921,3.0922,3.0923,3.0924,3.0884,3.0925,3.0924,3.0924,3.0924,3.0924,0,3.0956,3.0952,3.0956,3.0956,3.0959,3.0948,3.0947,3.095,3.0955,3.0954,3.0956,3.0961,3.0965,3.0958,3.0961,3.0965,3.096,3.0966,3.0965,3.0964,3.0932,3.0928,3.0971,3.0971,3.0971,3.0971,3.0971,3.0971,3.0977,3.0988,3.0983,3.0992,3.0989,3.0994,3.0995,3.0994,3.0993,3.0999,3.1002,3.0998,3.0994,3.0996,3.0999,3.0997,3.0997,3.1006,3.1001,3.0971,3.0967,3.0962,3.0958,3.1006,3.1006,3.1033,3.1033,3.1033]}]]